Theta_e
296 296 296 296 297 298 297 295 297 299 299 299 298 298 299 298 298 298 299 299 299 299 300 301 301 302 303 305 306 307 308 309 309 310 310 311 312 312 314 314 314 314 315 315 315 315 315 315 316 316 317 317 317 317 318 318 318 318 318 318 319 318 319 319 319 319 319 319 318 318 318 318 318 319 319 319 318 318 319 319 319 319 319 319 319 320
296 296 296 296 296 297 297 295 296 298 299 298 298 298 299 298 297 297 298 298 298 298 299 299 300 301 301 303 305 306 307 308 308 309 310 310 310 311 312 312 313 314 314 314 315 315 315 315 315 315 315 315 316 316 317 317 317 317 318 318 318 318 318 319 319 319 319 318 318 317 316 316 316 317 318 318 319 319 319 318 318 319 319 319 319 319
297 297 295 295 296 297 297 295 295 296 296 296 297 298 298 299 298 298 297 297 297 297 298 298 299 300 301 302 304 306 306 307 308 309 309 309 310 310 310 311 312 313 314 314 314 315 315 315 315 315 315 315 315 315 315 316 316 316 316 316 317 317 318 318 318 318 318 317 316 315 314 314 314 315 317 318 319 319 319 318 318 318 318 319 319 319
296 297 296 296 296 296 297 295 295 296 297 296 296 297 298 298 298 298 296 295 295 295 296 296 297 298 299 301 303 304 306 307 307 307 308 309 309 309 310 310 311 312 313 314 314 314 315 315 315 315 315 315 314 314 314 315 315 315 315 315 316 316 316 316 316 316 316 316 314 313 313 313 313 315 316 318 319 319 318 318 318 318 318 318 318 319
295 296 295 296 296 297 295 294 295 296 298 297 297 296 297 297 296 296 294 294 294 293 293 293 294 296 298 300 302 304 305 306 306 307 307 308 308 309 309 309 310 311 312 313 313 314 314 314 314 314 314 314 314 314 314 314 314 314 314 314 314 314 314 314 314 314 313 313 313 312 312 312 313 314 314 315 317 317 317 317 317 317 317 317 317 317
297 296 295 295 295 295 294 294 294 295 296 296 295 295 295 295 295 295 295 294 294 293 292 292 293 295 297 299 301 303 304 305 305 306 307 307 307 308 309 309 310 310 311 312 313 313 314 314 314 314 314 314 314 314 313 313 313 313 313 313 313 313 313 313 312 312 312 312 312 312 312 312 312 312 312 313 314 315 315 315 315 315 315 316 316 316
300 297 295 294 293 292 293 293 295 296 296 295 295 295 295 294 294 295 295 295 294 294 294 294 295 295 295 297 299 301 302 303 305 305 306 306 307 307 308 309 309 310 310 311 312 313 313 314 314 314 314 313 313 313 313 313 312 312 312 311 311 311 311 311 311 311 312 312 311 312 312 312 311 311 311 311 312 312 313 313 313 313 313 313 314 314
302 297 294 294 293 293 293 294 295 296 297 296 296 296 295 294 293 293 294 294 294 294 295 295 295 294 293 293 295 298 299 299 300 302 303 304 305 307 307 308 309 310 310 311 312 313 313 314 314 314 313 313 313 313 312 312 311 311 311 311 311 311 311 311 311 311 311 311 311 311 311 311 310 310 310 310 311 311 311 312 312 312 312 312 312 312
303 300 296 296 296 296 296 295 295 295 297 297 297 298 298 297 294 292 291 293 294 294 295 295 295 295 293 292 292 294 297 298 298 299 300 301 302 304 306 307 308 309 310 310 311 312 313 313 313 313 313 313 312 312 311 311 310 310 310 309 309 310 310 310 311 311 311 311 311 311 311 310 310 310 310 310 310 310 311 311 311 312 311 311 311 310
304 302 300 298 298 299 300 298 294 292 295 297 298 298 299 299 297 295 294 294 293 292 293 295 296 296 294 291 291 293 296 298 300 301 302 302 303 304 306 306 307 308 309 310 311 311 313 313 313 313 313 312 312 311 310 309 309 309 308 309 309 309 309 310 310 310 310 310 310 310 310 309 309 309 309 309 309 309 309 309 310 310 310 310 310 310
303 302 302 300 298 297 298 295 291 289 293 295 296 297 298 299 299 298 297 296 292 290 289 292 294 295 294 292 291 292 294 295 297 300 302 303 304 305 305 306 306 307 308 309 310 311 312 312 312 312 312 312 311 310 309 308 308 308 308 308 308 309 309 309 309 309 309 308 308 308 308 308 307 307 307 307 307 307 307 307 308 308 308 309 309 309
301 301 301 300 297 294 293 290 289 289 292 293 295 295 297 298 298 298 297 297 295 293 290 289 291 293 293 292 291 291 292 292 293 295 296 298 300 302 303 304 305 306 308 309 310 311 312 312 312 311 311 310 309 309 308 307 307 307 307 307 308 308 308 308 308 308 307 307 306 306 306 305 305 305 304 304 304 303 303 304 304 305 305 306 307 307
301 300 300 300 297 294 292 290 289 290 292 294 295 296 296 296 297 297 297 297 296 295 294 290 289 288 289 289 290 291 290 291 291 293 294 295 296 298 300 302 303 305 307 308 309 311 311 311 311 310 310 309 308 308 307 306 306 307 307 307 307 307 307 307 306 306 306 305 305 304 304 303 303 302 302 302 301 301 301 300 301 301 302 303 304 305
300 299 299 299 298 297 294 293 293 294 294 296 296 295 294 294 294 295 296 296 295 294 295 293 291 289 287 287 289 290 290 290 291 293 295 295 295 297 299 301 302 304 305 306 307 308 310 310 309 308 308 308 307 307 306 306 306 307 307 307 307 306 306 306 305 305 304 304 303 303 302 302 302 301 301 300 300 299 299 299 299 299 299 300 301 301
299 298 298 298 298 298 297 297 297 297 296 296 295 295 294 293 293 294 295 295 294 293 293 293 294 293 290 288 287 288 290 290 292 294 296 295 295 296 298 300 301 302 303 304 306 307 308 308 308 307 308 307 307 306 306 306 307 307 307 306 306 306 305 305 304 304 303 303 303 302 302 301 301 300 300 300 299 299 298 298 298 298 298 298 298 299
299 299 298 298 298 298 298 298 298 297 295 294 294 295 295 294 295 295 295 295 293 292 292 293 293 294 293 288 286 287 290 291 293 295 295 294 293 293 297 299 300 301 301 303 304 305 306 306 306 306 306 306 306 306 306 307 307 306 306 306 306 305 304 304 303 303 303 302 302 302 301 301 300 300 300 299 299 298 298 298 297 297 297 297 297 297
299 299 299 298 298 298 296 297 297 295 294 294 294 295 296 296 296 295 295 294 292 292 293 292 292 292 291 288 287 288 291 292 293 294 294 294 292 290 292 297 300 300 300 301 302 304 305 305 305 305 306 306 306 306 306 306 306 306 306 305 305 304 304 303 303 302 302 302 301 301 301 300 300 299 299 299 298 298 297 297 297 296 296 296 296 296
299 299 299 299 298 298 295 295 296 295 294 294 294 295 296 296 296 295 295 294 294 293 293 293 292 292 291 290 287 286 291 293 293 293 294 294 292 289 288 294 298 300 299 300 300 301 303 304 304 305 305 306 306 306 306 306 306 306 305 305 304 303 303 302 302 302 301 301 301 300 300 300 299 299 298 298 298 297 297 297 296 296 296 295 295 295
298 298 299 299 299 299 297 297 296 296 295 295 295 295 295 295 295 295 295 295 294 294 293 293 293 293 293 293 290 287 290 292 293 293 293 294 291 289 288 292 296 299 299 299 298 298 299 301 303 305 305 306 306 306 305 306 305 305 305 304 303 303 302 302 302 301 301 301 300 300 300 299 299 298 298 298 297 297 297 296 296 296 296 295 295 295
299 299 299 299 299 299 298 298 297 297 297 296 296 296 295 295 295 295 295 295 295 294 294 294 293 293 293 293 291 289 289 292 293 293 293 293 291 289 288 293 296 298 298 297 295 294 295 298 301 303 304 305 305 305 305 305 305 305 304 304 303 302 302 301 301 301 300 300 300 299 299 299 298 298 297 297 297 297 297 297 296 296 296 295 295 295
300 300 299 300 300 300 299 298 297 298 299 297 296 295 295 295 295 295 295 294 294 294 294 294 294 293 293 291 288 288 290 292 292 292 292 293 291 288 287 291 295 297 297 295 292 291 292 295 298 301 304 305 305 305 305 305 305 304 304 303 302 302 301 301 301 300 300 300 299 299 298 298 298 297 297 296 296 296 296 296 296 296 296 295 295 295
301 300 299 299 300 300 300 297 297 298 299 298 296 295 295 295 295 294 294 294 294 294 294 294 293 291 289 289 287 286 290 292 293 292 292 292 291 289 286 289 293 296 297 294 290 288 290 293 296 300 304 305 305 305 305 305 304 304 303 302 302 301 301 300 300 300 300 299 299 298 298 298 297 297 296 296 296 296 296 296 296 296 296 295 295 295
301 300 299 299 300 300 300 299 298 299 300 298 298 297 296 296 295 294 294 294 294 294 295 293 290 286 285 285 285 286 290 293 295 295 293 293 292 290 285 288 292 295 296 293 289 287 289 291 293 297 303 304 305 305 304 304 304 303 303 302 301 301 300 300 300 299 299 299 298 298 298 297 297 297 296 296 296 296 296 296 296 296 296 295 295 295
301 301 300 299 299 300 300 299 299 299 299 299 299 298 296 296 296 296 295 295 295 295 294 291 289 287 287 287 286 287 290 293 294 295 294 294 292 288 285 289 292 294 295 290 288 288 290 290 291 294 300 303 304 304 304 304 303 303 302 302 301 300 300 300 299 299 298 298 298 298 297 297 297 297 296 296 295 295 295 295 295 295 295 295 295 295
302 302 302 301 301 301 301 300 300 300 300 299 298 298 296 297 297 297 297 296 295 294 292 291 291 290 290 290 289 289 290 292 294 294 294 294 292 288 284 289 292 293 293 287 286 288 289 290 291 292 295 299 302 304 303 303 303 302 302 301 300 300 300 299 299 298 298 298 298 297 297 297 297 297 296 296 295 295 295 295 295 295 295 295 295 295
302 303 303 303 303 303 303 302 302 302 302 300 299 299 298 298 297 296 295 294 294 293 292 291 291 291 291 290 290 290 290 291 293 294 294 294 290 286 284 288 291 293 291 285 285 287 289 291 291 290 291 293 299 304 303 303 302 302 301 301 300 300 299 299 298 298 298 297 297 297 297 297 297 296 296 296 295 295 295 295 295 295 295 295 295 295
301 302 303 303 303 303 303 303 304 303 303 303 301 301 299 298 296 295 294 294 294 293 292 291 291 291 291 291 290 290 289 291 292 293 294 294 290 287 284 287 290 291 289 284 284 287 290 291 291 291 290 290 295 301 303 302 302 302 301 300 300 299 299 298 298 298 297 297 297 297 296 297 296 296 296 296 295 295 295 295 295 295 295 294 293 292
300 301 301 301 302 302 303 303 304 304 304 304 303 303 301 298 296 294 293 294 294 293 292 292 291 291 292 291 289 287 288 291 293 293 294 293 291 288 283 286 289 290 287 284 285 287 290 290 290 290 290 289 292 296 301 302 302 301 301 300 300 299 299 298 298 297 297 297 297 296 296 296 296 296 296 296 295 295 295 295 294 294 294 292 289 288
299 299 300 300 301 302 302 303 303 303 304 304 304 303 302 299 297 295 294 294 294 293 292 292 292 292 292 290 287 285 288 291 293 293 294 293 290 287 282 286 288 289 287 285 285 286 286 287 286 287 288 290 290 291 295 300 301 301 300 300 299 299 299 298 298 297 297 297 296 296 296 296 296 296 296 296 295 295 295 294 294 293 292 289 287 286
296 296 297 298 299 300 301 301 302 303 303 303 304 303 303 300 299 297 296 295 295 294 293 293 293 293 291 288 286 286 288 290 292 293 294 292 290 286 284 286 288 289 288 286 285 284 284 284 284 284 286 289 289 288 288 294 298 299 299 299 299 299 298 298 297 297 297 296 296 296 296 296 296 296 296 295 295 295 295 294 293 292 289 287 286 285
295 295 296 296 297 297 299 300 301 301 302 303 303 303 303 302 300 299 298 297 296 295 294 293 293 293 292 289 288 288 288 289 291 293 294 293 291 288 285 287 288 288 289 289 288 286 284 283 283 283 284 287 287 287 286 289 291 294 296 297 298 298 298 297 297 297 296 296 296 296 296 296 296 296 296 296 295 295 294 294 293 291 287 286 286 285
295 295 295 295 296 296 297 298 299 299 300 301 301 302 302 302 301 300 299 298 296 295 295 294 294 293 293 292 291 290 288 287 290 293 294 293 291 289 286 288 288 288 289 289 289 288 286 284 282 281 283 286 286 287 286 286 287 288 292 295 296 296 297 297 297 296 296 296 296 296 296 296 296 296 296 296 295 295 295 294 293 291 288 287 286 285
293 294 295 296 296 296 297 297 298 298 299 299 300 301 301 302 301 300 300 298 297 296 295 295 294 293 293 293 292 290 287 286 289 294 295 293 291 288 287 288 288 288 288 287 285 285 285 283 281 280 282 285 286 287 286 286 285 286 289 293 294 295 296 296 296 295 295 296 296 296 296 296 296 296 296 295 295 295 295 294 293 292 289 287 286 285
291 292 293 294 295 296 296 297 297 298 298 299 299 300 300 300 301 300 300 299 298 297 296 295 295 294 293 293 292 290 287 285 289 295 296 293 291 289 287 288 288 288 287 285 283 281 281 279 278 279 281 284 286 287 286 285 285 285 286 289 292 294 294 295 295 294 294 294 294 294 294 295 295 296 296 295 295 295 294 294 294 293 291 288 287 285
289 290 291 292 293 294 295 296 297 297 297 298 298 299 299 300 300 300 300 299 298 298 297 297 296 295 294 293 293 291 288 286 289 294 296 294 292 289 288 288 289 288 287 286 284 281 279 278 278 280 281 284 285 286 285 284 284 284 283 287 290 292 293 294 293 293 293 292 291 291 290 291 292 293 294 295 295 295 295 294 294 293 293 291 289 286
287 288 289 290 291 293 294 295 296 296 297 297 298 298 299 299 299 300 299 299 298 298 298 298 297 297 296 295 294 292 290 288 290 294 295 294 292 291 289 289 289 289 288 287 286 284 281 279 280 282 283 284 285 285 284 283 283 283 283 285 287 289 290 291 292 291 291 291 290 289 287 288 289 290 292 294 295 295 294 294 294 294 293 292 291 289
286 286 287 289 290 292 293 294 295 295 296 296 297 297 298 298 299 299 299 298 298 298 298 298 298 297 297 297 296 295 293 291 291 293 295 294 293 292 290 290 290 290 289 288 288 286 284 281 281 282 283 284 285 285 284 283 283 283 283 283 285 286 287 288 290 291 290 290 289 288 287 287 288 290 291 294 295 294 294 294 294 294 293 293 292 291
285 286 287 288 289 291 292 293 294 295 295 295 296 297 297 298 298 298 298 298 297 297 297 297 297 297 297 297 296 295 294 293 292 293 294 294 293 292 291 290 290 290 290 290 289 288 286 284 283 282 283 282 283 284 285 284 284 284 284 283 283 284 284 285 287 289 290 289 289 289 288 288 288 289 290 291 292 291 290 291 292 293 293 293 293 292
285 286 286 287 289 290 291 292 293 294 294 294 295 295 296 296 297 297 296 296 296 297 297 297 296 295 294 293 293 293 293 292 290 290 292 293 293 293 292 291 290 290 291 291 290 289 288 286 285 285 284 281 281 282 284 285 285 285 285 284 283 282 283 284 286 288 289 289 289 289 288 287 287 287 287 288 288 288 288 288 290 292 292 292 292 292
285 286 286 287 289 290 291 292 293 293 294 294 295 295 294 294 293 292 292 291 292 292 292 293 292 292 291 293 293 293 293 291 291 291 291 291 292 293 293 292 291 290 290 290 290 290 289 288 287 287 286 284 282 281 283 284 285 286 286 284 283 283 284 283 284 285 287 288 288 288 287 285 285 286 287 287 288 288 286 285 286 289 292 291 290 289
285 286 286 287 289 290 291 292 293 293 293 294 293 293 292 291 290 289 288 288 288 288 288 288 288 287 286 285 285 287 291 292 292 292 291 289 291 292 293 292 291 290 290 290 289 289 289 289 288 288 287 286 284 283 283 284 285 287 287 285 284 284 284 283 283 284 285 287 288 287 287 286 286 286 287 288 287 286 286 284 284 285 288 288 287 287
286 286 286 287 288 290 291 292 292 293 293 293 292 292 291 291 290 290 288 287 286 285 285 286 286 285 284 284 283 283 284 286 289 291 292 290 290 292 293 293 292 291 290 289 289 289 289 289 289 288 287 286 285 284 283 284 285 287 287 287 286 285 285 284 283 282 285 286 287 287 288 287 286 287 287 287 285 284 285 285 286 286 286 283 283 284
285 286 286 287 288 290 291 292 292 292 292 292 292 291 291 291 291 291 290 288 287 286 286 287 287 287 286 284 282 281 281 281 284 287 291 291 291 292 293 293 292 291 290 289 289 288 289 290 289 288 288 287 286 284 283 283 284 285 287 287 286 285 283 282 282 282 284 285 286 286 286 286 285 285 285 285 284 283 285 287 288 288 287 283 281 281
286 287 288 289 290 291 292 292 291 291 291 291 291 291 291 291 291 291 291 289 288 287 287 287 287 288 287 285 282 281 280 281 282 283 287 290 292 292 293 292 292 291 291 290 289 288 288 288 288 288 287 287 286 285 284 283 283 284 285 286 286 285 283 283 282 282 283 285 285 286 285 285 285 284 284 283 282 282 283 284 284 284 285 282 280 279
289 290 290 291 291 291 291 291 291 291 291 291 291 291 291 291 291 291 291 289 288 288 287 287 287 287 287 286 284 282 280 280 281 282 283 288 291 292 292 291 291 291 291 290 290 289 288 287 286 286 286 286 286 285 284 283 283 283 285 286 286 285 283 283 283 283 283 284 284 284 284 285 285 284 283 282 281 281 281 282 282 282 281 280 279 279
288 288 288 289 289 289 290 291 291 291 291 291 291 291 290 290 290 290 290 289 288 287 287 287 287 287 286 286 285 283 281 281 281 281 281 282 285 288 290 291 291 290 290 290 290 289 289 287 286 286 285 285 285 284 284 283 282 283 284 285 284 283 282 283 283 283 283 283 284 284 283 284 284 284 283 282 281 281 280 281 281 281 278 278 278 279
286 286 286 287 287 288 289 290 290 291 290 290 290 290 289 289 289 289 290 289 288 287 287 287 287 287 287 286 285 284 282 282 281 280 280 281 283 284 286 287 288 289 289 288 288 288 288 288 287 286 285 284 283 283 283 283 283 283 283 283 283 282 281 281 282 283 284 284 283 283 283 283 284 283 283 282 281 280 279 279 279 279 278 278 278 278
285 285 286 286 287 288 289 290 290 290 289 289 289 289 289 288 288 288 288 288 288 287 287 286 286 286 286 286 285 284 283 283 282 281 281 281 282 283 284 284 285 286 286 286 286 285 285 286 287 286 286 285 283 282 282 282 282 283 283 283 283 282 281 281 281 282 283 283 283 283 283 284 283 283 282 281 281 280 280 279 278 278 277 278 278 278
285 285 285 286 287 287 288 289 289 289 288 288 288 288 287 288 288 288 287 287 287 286 286 285 285 285 286 286 285 285 284 284 283 282 282 281 282 282 283 283 283 283 283 283 283 283 284 285 285 285 286 285 284 283 281 281 282 282 282 283 282 282 281 280 281 282 282 282 283 283 283 284 283 283 282 281 281 280 280 279 278 277 276 277 278 278
285 285 286 286 287 287 288 289 289 289 288 288 288 287 286 286 287 287 287 286 286 286 286 285 285 285 285 285 285 284 284 283 283 282 282 282 282 282 282 283 282 282 282 281 281 281 282 282 283 284 285 285 285 284 282 281 281 282 282 282 282 282 281 280 281 281 282 282 282 282 283 283 283 282 282 281 281 280 280 280 279 278 276 276 277 278
285 285 286 286 287 287 288 289 289 289 288 288 288 287 286 285 285 286 286 286 285 285 285 285 285 285 285 285 285 284 283 283 283 282 282 282 282 282 282 283 282 282 281 280 280 279 280 280 280 281 282 285 286 285 283 282 281 281 281 281 281 281 281 280 280 281 282 282 282 282 282 282 282 282 282 281 281 280 280 280 280 278 276 275 276 277
Wind_Speed
1 1 2 2 1 1 1 1 0 1 1 1 1 1 1 2 2 1 2 2 2 2 2 2 2 2 2 2 2 2 2 2 3 4 4 5 5 5 5 5 5 5 5 6 6 7 8 8 9 10 11 12 13 14 15 15 15 14 13 12 11 10 9 9 8 7 5 4 2 1 1 1 3 5 8 9 11 12 13 13 12 11 10 10 11 11
2 1 2 1 1 2 2 2 1 1 1 1 1 1 1 1 1 1 1 1 1 1 1 1 1 1 1 1 1 2 3 3 4 4 5 5 6 6 6 6 6 6 5 6 6 7 8 9 10 11 11 12 13 14 14 14 14 14 13 12 12 11 10 9 9 8 6 5 4 3 2 1 1 4 8 11 13 14 14 14 13 12 11 11 11 11
1 1 1 1 2 2 2 2 2 2 1 1 1 1 1 1 1 1 1 1 1 1 1 1 1 1 1 0 2 3 4 5 5 6 6 6 6 6 6 7 7 7 6 6 7 8 9 10 11 12 12 13 13 14 14 13 13 12 12 11 11 10 10 10 9 8 7 6 5 5 4 3 1 2 7 12 14 16 16 15 14 14 13 13 13 13
2 2 2 2 2 3 3 2 1 1 1 1 1 1 1 1 1 1 1 1 0 1 1 1 1 2 2 1 2 4 5 6 7 7 8 8 7 7 7 7 7 8 8 8 8 9 10 11 12 13 13 14 14 14 13 12 12 11 11 10 10 9 8 8 7 7 6 6 6 7 6 5 3 3 4 10 13 15 16 15 15 14 14 13 13 13
2 2 2 2 2 3 3 1 1 1 1 1 1 1 1 1 1 1 1 1 1 1 1 1 2 2 2 2 3 5 7 8 8 9 9 9 8 8 8 8 8 8 9 9 9 9 11 12 13 13 14 14 14 14 13 12 11 10 10 9 8 7 6 5 5 4 4 5 7 8 8 7 6 6 5 6 9 11 13 14 13 13 13 12 12 12
3 3 2 2 2 2 2 1 1 1 1 1 1 1 1 1 1 1 1 1 1 1 1 2 2 2 2 3 4 6 8 9 9 9 9 9 9 9 9 9 9 9 10 10 10 10 11 13 13 14 14 14 14 13 12 11 10 10 9 8 7 6 5 4 4 3 4 6 7 9 9 9 9 8 8 8 8 9 11 12 12 11 11 11 11 11
2 2 2 2 2 1 1 2 2 2 2 2 1 1 1 1 1 1 2 2 1 1 1 2 2 2 3 3 5 6 7 8 9 9 9 9 9 10 10 10 10 10 11 11 11 11 12 13 14 14 14 14 13 13 12 11 10 9 9 8 7 6 5 5 4 4 5 6 8 9 10 10 10 10 10 10 10 10 10 11 11 11 11 10 10 10
3 2 2 2 2 1 1 2 2 2 2 2 2 2 2 2 2 2 2 2 2 2 2 2 2 3 3 3 4 5 5 6 6 7 7 8 8 9 10 10 11 11 11 11 12 12 13 14 14 15 15 14 14 13 12 11 10 10 9 8 8 7 6 6 6 6 6 7 8 9 9 10 11 11 11 11 11 11 11 11 11 11 11 10 10 10
4 3 3 3 3 3 3 3 2 2 2 2 2 3 3 3 3 2 2 2 2 2 2 3 3 3 3 2 3 3 4 4 4 4 5 5 5 6 8 9 10 11 11 12 12 13 13 14 15 15 16 15 14 14 13 12 11 10 9 9 8 8 8 7 7 7 8 8 9 9 9 10 11 11 11 12 11 11 11 11 11 11 11 10 10 10
5 4 4 4 4 4 4 4 3 2 2 2 2 3 3 3 3 3 3 3 3 2 2 3 3 4 3 2 2 3 4 5 6 7 7 7 7 7 8 8 8 9 11 12 13 13 14 15 16 16 16 16 15 14 13 12 11 11 10 10 9 9 9 9 9 9 9 9 10 10 10 10 10 11 11 11 11 11 11 11 11 11 11 10 10 10
4 4 4 3 3 3 3 2 2 1 1 2 2 2 3 4 3 4 4 4 3 2 2 3 3 4 3 2 2 2 3 3 4 6 7 8 8 9 9 8 9 10 11 12 13 13 14 15 16 17 17 16 16 14 13 12 12 11 11 11 10 10 10 10 10 11 11 11 11 11 11 10 11 11 10 10 10 10 10 10 10 10 10 10 10 10
4 3 3 3 2 2 2 1 1 1 1 2 2 3 4 4 4 4 5 5 4 3 2 2 3 3 4 3 2 2 2 2 3 3 3 4 5 6 6 6 7 9 10 10 11 12 14 15 16 16 15 15 15 14 13 12 12 12 12 11 11 11 11 12 12 13 13 13 13 12 12 12 11 11 11 11 10 10 10 9 9 8 8 8 8 9
3 3 3 3 3 2 2 2 1 1 1 2 4 4 5 3 3 3 4 5 4 3 2 2 2 3 4 3 3 2 2 2 2 2 2 2 3 3 3 4 4 5 6 6 7 8 11 13 13 13 13 13 13 13 13 12 12 12 12 12 12 12 13 13 14 14 14 14 14 14 13 13 12 12 12 11 11 10 10 9 8 7 6 6 6 6
4 3 3 4 4 4 3 3 3 4 4 4 4 4 3 2 3 3 4 4 3 2 2 2 2 3 3 3 3 3 2 2 2 2 2 3 3 3 2 3 4 4 4 4 4 4 6 8 8 9 11 11 12 12 13 13 13 13 13 13 13 14 14 15 15 16 16 15 15 14 14 13 13 12 12 11 11 10 10 9 8 7 6 5 4 4
4 4 4 5 5 4 4 4 5 6 6 5 4 3 2 2 3 3 3 3 3 2 1 2 3 3 3 3 3 3 3 3 2 3 3 3 3 3 3 4 4 3 3 3 4 4 5 5 5 6 8 10 11 11 12 12 14 14 14 14 15 15 16 16 16 16 16 16 15 15 14 14 13 12 12 11 11 10 10 9 8 7 5 4 3 3
4 4 5 5 5 5 5 5 5 5 5 4 3 3 3 3 3 3 4 3 2 2 2 2 3 4 3 2 2 3 3 3 3 3 4 3 3 2 3 4 4 3 3 4 4 4 4 5 5 6 7 10 11 12 13 13 14 15 15 16 16 16 16 17 17 17 17 16 16 15 14 14 13 12 12 11 11 10 10 9 8 7 6 5 3 3
5 5 5 6 5 5 4 4 4 4 4 3 3 4 4 4 4 3 3 3 2 2 2 2 3 3 3 2 1 2 3 3 3 3 3 3 3 2 3 3 4 4 3 4 4 4 4 5 5 5 6 10 12 14 14 15 16 16 17 17 17 17 17 17 17 17 17 16 15 15 14 14 13 12 12 11 11 11 10 9 9 8 7 6 5 4
5 5 5 6 5 5 3 4 4 4 3 3 3 4 4 4 4 4 4 4 3 3 3 3 3 2 2 2 2 1 3 3 2 2 3 3 2 1 1 3 4 4 4 4 4 4 4 5 5 6 7 12 14 15 16 16 17 17 18 18 18 18 18 17 17 17 17 16 15 15 14 14 13 13 12 12 11 11 11 10 9 9 8 7 6 6
5 5 5 6 5 4 4 4 5 4 4 4 4 3 4 4 4 4 4 4 4 4 4 3 3 3 3 3 2 2 3 3 2 2 2 3 2 1 1 2 3 4 4 4 4 3 3 4 6 8 10 14 16 17 18 18 18 18 18 18 18 18 18 18 17 17 16 16 15 15 14 14 13 13 13 12 12 11 11 11 10 10 9 8 8 7
6 6 6 5 5 5 5 6 6 6 6 5 4 4 4 4 4 5 5 5 5 5 4 4 4 4 3 3 2 2 3 3 2 2 3 3 2 1 1 2 4 4 4 4 3 2 2 3 5 8 12 15 17 18 19 19 19 19 19 19 19 18 18 18 17 17 16 16 15 15 14 14 14 13 13 12 12 12 11 11 10 10 10 9 8 8
6 6 6 5 5 5 5 5 6 7 7 6 5 5 4 4 5 5 5 5 5 5 5 5 5 5 4 3 2 3 5 4 3 2 2 2 2 2 1 2 3 4 4 3 2 1 1 2 3 6 10 15 18 19 20 20 20 20 20 19 19 19 18 18 17 17 16 16 16 15 15 14 14 13 13 12 12 11 11 11 11 10 10 9 9 8
6 5 4 4 5 5 5 4 5 6 6 6 6 5 4 5 5 5 5 5 6 6 6 6 5 4 3 3 2 2 5 5 4 3 2 2 2 2 1 2 3 4 4 3 1 0 1 1 2 5 9 15 18 20 20 20 20 20 20 20 20 19 19 18 18 17 17 16 16 15 15 14 14 13 13 12 12 11 11 11 10 10 10 9 9 8
7 5 3 3 4 5 4 3 3 4 5 6 6 5 4 5 5 6 5 6 6 6 6 4 3 2 2 1 1 2 3 4 4 3 2 2 3 2 1 2 2 3 4 2 1 1 1 1 2 4 8 16 19 20 20 20 20 21 20 20 20 19 19 18 18 17 17 16 16 15 15 14 14 13 13 12 12 11 11 11 10 10 10 9 9 8
7 5 4 3 3 3 3 3 3 3 4 5 5 5 5 5 5 5 5 6 5 4 3 2 2 1 1 1 1 1 3 3 3 3 3 3 3 2 1 2 3 4 3 1 1 1 1 2 2 2 4 13 18 20 21 21 21 21 21 20 20 20 19 19 18 17 17 16 16 15 15 14 14 13 13 12 12 11 11 11 10 10 10 9 8 8
6 6 4 4 4 4 4 4 4 4 5 5 5 5 5 5 5 4 4 4 3 3 3 3 3 3 3 3 2 2 3 3 4 3 3 3 2 1 1 2 3 4 2 0 1 1 2 2 2 2 2 7 14 19 20 21 21 21 21 21 20 20 19 19 18 18 17 16 16 15 15 14 14 14 13 13 12 12 11 11 11 10 10 9 8 8
10 9 9 8 8 8 8 8 8 8 9 7 6 5 5 5 4 3 3 3 3 4 4 4 4 4 4 3 3 3 3 3 4 4 3 2 2 1 1 2 3 3 2 1 1 1 2 2 2 2 2 4 9 16 19 20 21 21 21 21 20 20 20 19 18 18 17 16 16 15 15 15 14 14 14 13 13 12 12 11 11 10 10 9 9 8
16 16 16 15 15 14 13 13 13 14 14 13 11 9 7 5 4 4 5 5 5 5 5 5 5 5 4 4 4 4 3 4 4 4 4 3 2 2 2 2 3 2 2 1 0 1 2 3 3 2 2 3 5 10 17 20 20 20 21 21 20 20 20 19 18 18 17 16 16 15 15 15 15 14 14 14 13 12 12 12 11 11 10 9 7 6
18 18 18 18 17 17 17 16 17 17 17 17 17 15 10 7 6 7 7 5 5 6 6 6 6 5 5 4 4 3 3 4 5 5 4 3 2 2 2 2 2 2 2 1 1 1 1 1 2 2 2 2 3 5 12 17 19 20 20 20 20 20 19 19 18 18 17 16 16 16 15 15 15 15 14 14 13 13 12 12 11 10 9 7 5 3
14 15 16 17 17 17 17 17 17 18 19 19 19 17 12 8 8 8 6 5 6 7 7 7 6 5 4 4 3 3 3 4 5 5 5 3 2 2 2 2 3 3 3 2 1 2 2 1 1 1 2 2 2 2 4 12 15 16 18 20 20 20 19 19 18 18 17 17 16 16 16 15 15 15 15 14 14 13 13 12 11 9 7 6 5 4
8 9 11 12 13 14 14 14 14 15 17 19 19 17 13 9 8 7 6 6 7 7 8 7 7 5 4 3 2 2 3 4 5 6 6 4 3 2 2 3 3 3 3 3 1 0 1 1 1 1 1 2 1 1 1 5 8 9 12 15 17 18 18 19 18 18 17 17 16 16 16 15 15 15 15 14 14 13 13 12 10 7 5 4 4 4
5 6 7 7 8 8 9 9 10 11 13 15 16 15 12 9 8 7 6 7 7 8 8 7 7 6 5 4 3 3 3 4 6 7 7 5 4 3 4 4 4 4 4 3 3 2 2 2 2 1 1 2 2 1 1 1 2 4 6 9 10 12 16 17 17 17 17 17 16 16 16 16 15 15 15 15 14 14 13 12 10 7 4 4 4 4
6 6 6 5 5 6 6 7 7 7 9 10 11 11 11 10 8 7 7 7 7 7 7 7 7 6 6 6 5 5 3 4 6 9 9 5 3 3 4 4 4 4 4 3 3 2 2 2 1 1 1 2 2 2 2 1 1 2 4 6 7 8 14 15 15 15 14 15 16 16 16 16 15 15 15 15 15 14 14 13 11 8 5 5 4 4
8 7 7 6 6 5 6 6 6 7 7 7 8 8 8 9 8 8 7 7 7 7 7 7 7 6 6 7 6 5 3 4 7 10 11 6 4 3 4 4 5 4 4 2 1 1 2 2 1 1 2 2 3 3 2 2 1 1 3 5 6 7 11 12 12 11 11 12 13 14 15 15 15 16 16 15 15 15 14 14 12 10 7 5 5 5
8 9 9 8 8 7 6 7 7 7 7 7 7 7 7 7 8 8 8 7 7 8 8 8 7 7 7 6 6 5 3 4 7 11 12 7 5 4 4 5 5 5 4 3 1 1 1 1 1 1 1 2 3 3 2 2 2 1 1 3 5 6 8 9 9 8 8 8 8 9 11 11 13 14 14 15 15 14 14 14 13 12 10 7 5 5
7 9 9 9 9 9 8 8 7 7 7 7 7 7 7 7 7 7 7 7 7 7 8 8 8 8 7 7 6 5 4 5 8 11 11 8 5 4 4 5 6 5 5 4 3 2 1 1 2 2 2 2 3 3 2 2 2 1 1 1 3 5 6 6 7 7 7 6 6 5 6 6 7 9 10 12 13 14 14 14 14 13 13 10 8 6
7 8 9 9 9 9 9 8 8 7 7 7 7 7 7 7 7 7 6 6 7 7 8 8 7 7 7 7 7 6 5 6 8 11 11 8 6 5 5 5 6 6 6 6 5 4 3 2 2 2 3 3 3 3 2 2 2 1 0 1 2 3 4 5 6 6 6 6 6 5 5 5 5 5 7 11 13 14 14 14 14 14 14 13 11 9
6 7 8 8 9 9 10 8 7 6 6 6 6 6 7 7 7 7 6 6 6 7 7 8 8 8 8 7 7 6 5 7 9 11 12 9 7 6 5 5 6 7 7 7 6 5 4 3 3 2 3 3 3 4 3 3 2 2 1 1 1 2 3 4 5 6 6 6 6 5 5 5 5 5 6 10 12 13 14 15 15 15 15 15 14 12
6 7 7 7 8 9 9 9 7 6 5 5 6 6 7 7 7 7 6 7 7 7 7 7 7 8 10 8 7 6 6 9 11 12 13 10 8 6 5 5 6 7 7 7 7 6 6 5 5 4 3 2 2 3 4 5 5 5 4 2 2 1 2 3 4 6 6 6 6 6 6 5 5 5 5 6 7 8 8 9 11 13 14 14 14 14
7 7 8 8 8 9 9 9 8 6 5 5 5 5 5 6 7 7 6 6 7 7 8 8 7 7 9 9 8 7 7 10 12 13 13 11 9 7 6 6 6 7 7 6 6 6 6 6 6 6 5 3 2 2 3 5 6 6 5 3 2 1 1 2 4 5 6 7 7 7 6 5 5 4 4 4 5 5 5 5 6 8 9 9 10 12
7 8 9 9 9 9 9 8 7 6 5 5 5 5 5 5 5 5 5 4 4 4 5 5 4 4 4 4 5 5 7 9 11 12 12 10 9 8 7 6 7 7 7 6 6 6 7 6 6 6 5 4 3 3 3 4 6 6 7 5 3 3 3 3 3 4 5 6 7 7 5 4 4 5 5 5 5 5 5 4 4 5 6 5 5 6
8 8 9 9 9 9 9 8 7 6 5 4 4 4 4 4 3 3 3 2 2 1 1 2 2 2 2 2 1 1 3 7 10 11 10 10 10 9 7 7 6 6 7 6 6 6 7 6 6 6 5 5 4 4 4 5 7 9 10 8 6 5 5 4 4 3 4 5 6 6 7 6 5 5 5 5 5 4 5 4 4 4 4 4 4 4
9 9 8 8 8 8 7 7 6 6 5 4 4 4 4 4 4 4 3 3 2 2 2 2 3 3 2 1 2 3 2 1 5 9 11 11 11 10 8 7 6 6 7 7 6 6 7 7 6 6 6 5 5 4 4 5 6 8 9 8 7 5 4 4 3 3 4 5 6 6 7 6 6 6 5 5 4 4 5 5 5 5 4 3 3 3
8 8 9 9 8 8 8 7 6 5 4 4 4 5 5 5 5 5 5 5 4 4 4 4 4 4 4 2 1 1 3 3 2 3 7 10 11 11 9 8 8 7 7 7 6 6 6 6 6 5 5 6 6 5 5 5 5 6 7 8 7 6 4 4 4 4 4 5 6 6 6 6 5 4 4 4 4 4 4 5 6 6 5 4 3 3
8 8 8 7 7 6 6 5 5 4 4 4 5 5 5 6 6 6 6 5 5 5 4 4 4 4 5 4 3 1 1 2 3 2 2 7 9 10 9 9 9 8 8 8 7 6 6 6 5 5 5 5 5 6 5 6 6 6 6 7 7 7 6 6 6 6 5 5 5 5 5 5 5 4 4 4 3 3 4 4 4 4 4 4 4 4
7 6 6 5 4 4 5 5 5 5 5 5 5 6 5 6 6 6 6 5 5 5 5 4 4 3 4 4 3 2 1 1 2 3 3 3 7 9 8 8 8 8 8 8 7 7 6 6 5 4 4 5 5 6 6 6 6 6 6 6 6 5 4 5 6 7 6 6 6 6 6 6 6 5 4 4 3 3 3 4 4 4 3 3 4 4
4 4 5 4 4 5 7 7 7 6 6 6 6 6 5 5 5 5 6 6 5 5 5 5 5 5 4 4 4 3 2 2 1 1 2 1 1 3 5 6 6 7 7 6 6 6 6 6 6 6 5 4 5 5 6 6 6 6 6 6 5 4 4 4 6 7 7 7 6 6 7 7 6 6 5 5 4 3 3 3 4 4 4 4 4 4
5 5 5 5 5 6 7 8 7 7 6 6 6 5 5 4 5 5 5 5 5 5 5 5 6 6 6 5 4 5 5 4 3 2 1 1 1 2 3 3 4 4 4 4 4 4 4 5 6 7 6 6 5 5 5 6 6 7 6 6 6 5 4 5 5 6 7 7 7 7 8 7 7 6 6 5 4 3 3 2 2 3 3 4 4 4
6 6 6 6 6 7 7 7 7 6 6 6 5 5 5 5 6 6 5 5 5 5 6 6 6 6 6 5 5 6 6 6 5 4 3 2 2 2 3 3 3 4 4 4 4 4 3 3 4 5 7 7 6 6 5 6 6 6 6 6 6 6 5 5 5 5 6 6 8 9 9 8 7 7 7 6 5 4 3 2 2 1 1 2 3 4
6 6 7 7 7 7 7 7 7 6 6 5 5 4 4 5 7 8 5 5 5 5 6 6 7 6 6 5 5 6 6 6 5 5 4 3 3 3 3 4 4 4 4 4 4 4 4 4 3 2 2 4 5 6 6 6 6 5 5 6 6 6 5 5 5 5 6 6 8 9 9 7 6 6 7 7 6 5 5 4 3 1 0 1 2 3
7 7 7 7 7 8 8 8 7 7 6 6 5 4 4 5 5 6 5 5 5 5 6 6 7 7 6 6 5 6 6 6 6 5 5 4 4 4 5 5 5 5 4 3 3 3 3 3 3 3 3 1 2 5 7 7 6 5 5 5 5 5 5 5 5 5 6 6 7 8 8 6 5 5 6 7 6 6 5 5 4 3 1 1 1 2
7 7 7 8 8 8 8 7 7 7 6 6 6 5 4 5 5 5 5 4 5 5 5 6 6 7 7 6 6 6 7 7 7 6 6 5 5 5 6 6 6 6 5 4 3 3 3 2 1 1 2 1 1 4 6 7 7 6 5 5 5 5 5 5 5 5 6 6 6 7 7 6 6 5 6 6 6 6 5 5 5 4 3 2 2 2
Wind_Direction
271 292 316 326 319 302 294 305 276 169 174 158 140 127 116 103 96 89 90 96 100 104 103 94 84 70 54 33 16 358 335 315 302 293 289 289 288 289 289 287 280 269 255 239 226 217 212 209 207 204 202 198 195 192 190 188 187 186 186 186 187 189 190 192 195 195 193 185 175 166 303 262 212 184 167 156 148 143 140 140 140 141 143 143 141 138
268 290 308 302 279 266 274 289 280 235 198 186 176 161 142 131 130 129 122 110 110 114 118 111 100 92 79 22 336 315 303 295 291 287 286 288 290 294 298 300 296 286 269 247 230 219 213 210 208 206 204 201 198 195 193 191 189 189 189 189 190 192 194 197 199 199 194 176 154 126 86 51 220 193 177 165 157 152 149 149 149 150 152 152 150 146
228 251 266 239 227 230 250 262 260 247 222 192 181 175 161 156 159 162 152 133 127 137 144 145 144 144 162 250 287 291 290 290 289 289 289 291 293 296 298 300 298 292 280 259 239 225 216 213 211 209 207 204 201 198 195 192 190 188 187 188 189 192 195 199 203 204 199 177 152 126 103 83 63 195 183 172 165 159 155 154 154 155 157 157 155 152
203 220 233 214 216 224 229 224 225 229 230 191 175 181 191 191 187 178 160 167 193 220 212 191 184 187 197 226 263 278 283 285 286 287 288 290 291 292 292 292 290 288 283 269 251 235 223 218 214 212 210 207 204 201 197 193 189 186 184 186 187 190 194 199 204 206 202 177 153 134 119 103 93 114 164 167 164 159 156 154 153 154 156 156 154 151
206 211 210 196 213 226 223 199 190 199 198 178 175 186 199 199 194 180 163 182 211 230 232 220 211 208 211 230 259 272 277 280 282 283 285 286 286 285 284 282 280 279 278 271 259 245 232 224 218 215 212 209 206 201 196 191 187 183 181 182 183 186 189 193 196 197 191 169 154 144 136 123 109 99 104 129 141 146 146 144 144 146 148 149 148 145
211 204 191 189 203 212 199 181 175 175 165 175 180 184 190 189 188 190 201 206 217 226 232 227 224 224 231 247 262 270 274 276 278 279 280 280 280 278 277 274 272 271 271 268 262 251 238 228 221 215 211 208 204 200 194 188 184 180 178 178 177 177 175 173 171 169 167 161 156 152 147 138 126 115 105 108 113 119 125 126 127 129 132 133 134 133
220 196 172 195 207 207 179 185 183 177 164 175 186 204 220 221 220 222 223 221 225 240 258 254 248 245 247 251 258 264 269 272 274 274 275 275 274 273 271 269 267 266 265 265 261 253 242 230 221 213 208 204 200 196 190 185 181 177 175 173 171 168 163 158 155 155 157 159 159 157 153 146 137 130 124 119 116 115 116 116 116 117 116 115 115 114
233 203 173 203 215 221 218 212 201 188 170 172 190 222 249 254 251 247 243 236 235 242 264 274 273 264 254 249 251 254 259 264 266 267 269 269 268 267 267 265 264 262 262 261 258 252 242 230 220 211 204 200 196 191 187 183 179 175 173 170 167 163 159 155 152 152 154 157 159 159 156 150 144 139 136 133 131 128 126 124 122 119 115 112 108 105
236 222 204 206 207 214 231 230 217 199 178 175 191 216 239 249 255 258 257 246 234 227 235 260 269 271 263 247 241 242 244 245 246 249 253 254 256 258 260 261 261 261 260 259 256 250 241 229 218 208 201 196 192 188 184 180 177 173 170 168 165 161 158 154 152 150 150 152 154 155 154 150 147 144 141 140 139 137 136 135 132 129 125 120 116 112
235 228 218 212 208 210 224 227 223 208 192 188 199 215 227 240 249 256 259 245 232 217 213 231 249 261 267 256 240 234 239 242 244 243 243 244 245 247 252 256 258 259 260 259 255 248 239 228 217 207 199 194 189 185 180 177 174 171 168 165 163 160 157 154 150 148 146 145 145 145 145 144 143 141 139 138 137 136 137 136 135 134 132 129 126 123
234 228 222 217 214 214 220 215 212 208 195 186 207 228 230 229 235 246 259 254 244 224 212 221 230 240 252 255 246 231 226 240 245 246 245 246 247 250 253 256 257 259 259 258 253 246 235 224 214 205 197 191 186 181 176 172 169 167 165 163 161 158 155 152 148 145 142 140 139 138 137 136 135 133 131 130 128 126 125 126 128 129 131 132 132 131
233 228 225 214 206 198 197 153 107 102 124 159 202 230 235 224 218 226 245 255 254 242 218 225 229 231 233 235 236 230 214 225 235 243 245 246 247 249 254 256 258 258 257 255 249 240 229 218 209 201 193 187 182 177 171 168 166 164 163 161 159 157 154 150 147 144 142 139 137 135 134 132 131 129 126 123 119 116 113 112 112 114 121 126 131 135
229 224 225 214 205 194 180 150 135 149 168 189 210 225 231 214 201 206 228 246 251 247 228 226 234 237 232 226 221 215 211 221 225 227 230 238 239 241 247 253 254 253 251 249 243 232 221 208 199 192 185 180 175 170 166 164 163 163 162 160 158 155 153 150 147 145 142 140 139 137 135 134 132 130 127 124 120 116 113 110 107 107 109 116 126 134
225 221 220 221 217 209 193 186 191 199 206 209 215 220 219 187 173 187 218 237 243 240 226 240 249 250 240 225 215 207 202 217 226 232 234 235 229 226 232 247 249 246 239 233 227 216 203 193 187 181 176 172 168 165 163 162 162 163 162 160 158 155 152 150 148 146 145 143 142 140 139 138 137 135 132 129 126 123 120 117 115 113 112 117 127 139
223 220 223 225 223 217 206 204 209 213 215 213 210 205 186 170 173 188 211 230 233 223 214 245 256 258 245 224 209 198 195 211 230 243 247 242 229 216 216 239 245 241 228 220 212 198 182 176 172 169 168 169 167 165 164 164 165 164 163 161 158 155 153 151 149 148 147 146 145 144 143 143 142 140 138 136 133 131 128 127 125 124 124 129 140 158
223 221 226 228 228 224 214 209 213 217 218 209 194 183 183 197 200 202 211 224 221 206 207 245 262 267 258 232 201 190 189 207 227 241 249 250 236 211 197 221 234 235 222 213 203 190 177 173 169 167 167 170 169 168 168 168 168 166 165 162 159 157 155 153 152 151 150 149 149 148 147 147 147 146 145 142 140 138 136 135 135 136 138 144 157 178
226 223 226 229 231 229 218 213 213 214 210 200 189 185 193 203 204 203 207 206 199 195 208 224 246 266 278 292 271 205 186 200 219 238 248 252 247 218 184 206 220 225 215 210 200 188 178 175 172 170 171 172 171 171 170 170 169 168 166 163 160 158 156 156 154 153 153 152 152 151 151 151 151 151 150 148 146 145 144 143 144 146 149 155 166 180
229 224 225 229 231 229 216 211 211 212 205 199 194 194 199 202 199 196 199 198 200 206 212 214 220 234 258 280 278 231 189 194 210 233 246 251 252 237 190 206 215 218 212 209 203 193 182 178 175 174 174 174 173 173 172 172 170 168 166 163 161 159 158 158 157 156 155 155 154 155 155 155 155 155 155 153 152 151 150 151 152 154 157 162 169 178
235 226 222 228 231 228 212 207 206 207 207 203 199 197 204 203 201 198 202 202 205 207 208 213 219 226 235 246 241 215 190 192 202 223 242 251 259 265 219 210 215 216 211 207 203 196 189 182 179 177 175 175 174 174 173 172 171 169 166 164 162 160 159 159 158 158 157 157 157 158 159 159 159 159 159 158 157 157 157 157 158 160 163 166 171 176
249 237 228 230 231 229 221 212 206 203 203 200 195 194 200 200 202 205 207 207 208 207 202 210 218 224 228 236 219 186 172 180 196 219 243 251 260 265 224 208 212 215 214 206 197 191 197 188 180 176 175 175 175 175 174 173 171 169 166 164 162 161 161 160 160 159 159 160 160 161 162 163 163 162 162 162 162 162 162 163 164 165 167 169 172 176
262 250 235 228 229 231 227 215 208 204 199 190 187 190 197 198 203 207 207 205 207 207 203 210 216 218 213 221 207 173 164 171 184 207 238 250 252 247 225 210 212 215 217 206 195 189 223 199 186 179 178 177 176 175 174 173 171 168 166 164 162 162 161 161 161 161 162 162 164 165 166 165 165 165 165 165 166 166 167 168 168 169 170 172 173 175
274 267 254 239 236 237 235 218 209 203 193 183 183 191 198 200 205 208 204 202 204 207 208 212 211 204 190 198 193 175 169 173 181 194 215 247 246 236 212 206 212 216 219 206 196 218 264 221 200 188 184 180 178 176 174 172 170 168 166 164 163 162 162 162 163 163 164 165 166 168 168 168 168 168 168 169 170 171 171 172 171 171 171 171 172 173
277 278 274 250 245 245 246 227 211 201 193 189 192 198 201 202 204 205 200 200 203 208 210 208 193 154 132 140 151 169 180 186 187 190 203 242 248 239 197 189 203 215 222 196 169 165 227 232 222 202 190 182 180 177 175 172 170 168 166 164 163 163 163 164 165 166 167 168 169 170 171 171 171 171 171 172 173 174 174 173 172 171 170 169 169 169
271 270 265 244 236 238 243 231 215 204 201 204 206 208 207 207 207 206 200 200 201 202 193 165 136 112 126 137 146 178 196 197 193 194 210 238 247 246 204 185 200 212 219 173 131 150 180 212 236 233 211 187 182 178 175 173 170 168 166 165 164 164 164 165 166 168 169 170 171 173 174 174 174 173 173 174 174 174 174 172 170 168 166 165 164 165
269 269 265 247 233 228 227 223 216 208 205 208 212 214 214 215 216 213 202 196 191 182 165 161 177 197 201 198 203 209 201 196 193 194 208 234 241 231 211 197 202 206 206 87 53 157 173 198 228 255 257 197 186 181 177 174 171 169 167 166 165 166 166 167 168 169 171 172 174 175 177 177 176 175 174 174 174 174 172 170 168 165 163 161 161 161
268 266 263 257 250 243 236 232 227 220 213 211 210 209 209 212 213 211 201 193 185 180 177 188 200 205 197 196 204 208 194 190 192 197 201 216 230 241 244 214 207 200 168 66 30 194 181 194 209 234 264 219 192 184 179 175 173 170 169 168 167 167 168 168 170 171 172 173 175 177 179 179 178 176 174 174 173 173 172 169 166 164 161 159 158 159
266 264 261 258 255 250 245 241 237 233 226 221 215 209 202 201 204 209 210 200 190 185 190 200 207 208 198 199 204 203 183 184 191 197 195 202 214 225 225 212 198 179 127 70 349 230 198 199 202 209 225 248 214 191 180 177 175 172 170 169 169 169 169 170 171 172 173 174 176 178 180 180 179 177 175 174 174 173 171 169 166 162 158 153 151 151
266 264 262 259 256 253 250 247 245 242 238 232 224 216 205 200 204 210 212 197 189 190 199 203 206 207 203 203 202 195 180 186 192 192 181 190 206 216 199 194 181 160 121 82 7 315 255 231 216 210 216 242 240 204 183 179 176 174 173 172 171 171 171 171 172 172 173 175 177 179 180 181 180 178 176 175 174 173 172 169 166 160 149 137 126 115
267 267 266 263 259 256 254 252 250 249 246 241 233 224 213 207 207 210 208 189 187 195 206 207 207 206 202 193 183 180 190 196 192 182 168 181 199 207 173 175 168 153 126 103 52 8 324 303 280 254 238 231 245 232 190 183 178 174 175 173 173 172 172 172 173 173 174 175 177 179 180 181 181 179 178 176 175 174 173 170 165 155 134 122 112 101
268 268 268 265 261 258 256 254 253 251 249 246 241 235 227 220 216 214 204 189 191 199 207 208 207 202 183 155 151 179 210 204 188 173 166 180 189 183 154 169 170 162 146 131 110 12 284 276 277 275 263 226 222 236 267 191 179 172 173 174 174 174 174 174 173 173 174 175 177 179 181 182 182 181 180 178 177 175 173 170 161 145 119 117 114 108
283 276 271 266 261 258 256 254 253 251 248 246 244 241 237 231 226 219 207 197 197 201 206 206 203 195 176 160 171 196 216 200 182 171 168 185 187 171 155 170 175 174 170 161 162 183 228 251 267 275 265 228 210 200 221 213 185 170 168 169 172 174 175 174 174 174 175 176 178 180 182 183 183 183 181 180 178 176 174 168 157 140 126 125 121 115
297 290 281 273 263 256 252 252 251 249 246 244 242 240 237 233 228 220 210 203 201 202 205 204 201 195 186 187 195 203 205 188 177 173 171 181 179 162 161 170 175 178 186 178 171 171 181 202 235 261 239 215 203 190 176 186 189 177 170 165 167 172 174 174 174 174 175 177 179 181 183 185 185 185 183 182 180 178 175 169 159 145 135 132 128 124
296 292 289 283 272 261 251 249 247 246 244 241 238 235 233 230 225 219 212 205 201 201 202 201 199 196 194 199 204 206 196 182 176 175 173 173 164 155 165 171 173 174 180 171 141 125 145 157 169 203 216 207 196 182 168 168 185 198 184 170 166 168 171 172 172 173 174 176 179 182 184 186 187 187 185 184 182 180 177 171 164 154 143 139 135 131
291 289 288 285 280 271 261 254 249 246 243 240 236 231 227 226 223 219 214 207 203 201 201 199 197 195 195 199 205 208 198 188 180 177 174 171 163 156 163 172 173 171 170 166 136 92 94 129 144 164 193 196 192 183 168 166 173 193 216 184 171 166 168 170 170 170 172 172 175 179 183 186 188 189 187 186 184 182 179 174 166 158 152 147 142 137
286 285 284 282 280 276 270 262 253 246 242 238 234 230 226 225 224 220 215 209 206 204 205 202 200 197 194 196 200 203 197 189 183 180 176 173 165 156 162 176 176 172 172 175 168 151 132 152 165 165 154 169 182 187 171 153 140 134 293 218 184 171 167 166 166 165 165 166 168 171 175 179 185 188 187 186 185 184 181 176 169 162 157 154 151 147
283 281 280 278 276 274 272 266 257 247 240 236 233 230 228 227 226 223 218 212 209 208 208 208 206 203 199 198 199 198 190 178 178 181 181 177 168 160 164 177 178 175 176 180 179 173 160 162 169 169 156 160 171 180 170 139 114 98 46 253 205 179 167 162 160 159 160 162 165 166 166 170 176 182 185 186 185 184 183 180 173 166 161 159 158 157
277 277 275 274 272 271 270 266 260 251 242 237 233 231 229 229 228 225 221 216 212 211 211 211 211 210 208 205 202 197 180 167 173 180 183 179 172 167 169 173 176 177 179 180 181 177 166 157 160 170 177 172 172 171 164 151 144 146 174 195 195 177 163 159 159 159 160 163 164 165 164 166 171 178 183 185 185 184 184 181 176 171 165 164 164 165
270 271 271 270 268 267 267 264 261 254 248 243 238 234 231 229 227 224 221 217 214 212 212 211 212 212 212 210 206 194 167 164 171 178 181 179 177 174 171 168 174 180 184 181 178 175 171 169 173 181 194 194 186 175 162 163 170 178 182 173 160 149 151 159 162 163 163 163 163 162 161 163 167 172 179 182 182 181 181 182 179 174 169 169 170 171
265 266 267 266 265 264 263 261 259 256 251 244 239 234 230 229 226 223 219 217 216 215 213 211 210 209 208 205 200 186 166 166 171 176 178 178 179 177 172 169 174 180 185 181 177 175 177 181 185 187 186 183 183 181 171 172 175 176 169 156 149 169 184 171 170 169 165 163 162 162 160 161 163 166 172 171 168 166 169 175 177 175 171 171 172 173
262 263 264 263 262 261 260 259 259 256 251 245 240 237 235 235 231 225 219 219 222 224 221 210 202 195 194 194 188 180 172 170 173 176 177 179 179 179 176 173 172 173 176 178 178 179 182 188 191 190 182 172 166 167 175 179 177 172 164 162 173 189 188 182 178 175 167 164 164 163 161 160 162 166 171 170 168 166 165 167 169 171 167 165 166 169
260 262 263 264 263 263 262 261 260 256 250 245 242 241 238 235 231 225 218 217 220 222 191 152 132 111 88 54 48 130 170 174 176 178 179 179 179 179 179 175 170 167 169 174 178 182 185 190 191 190 185 174 164 162 173 181 179 175 173 176 178 175 165 169 173 173 168 165 164 163 162 161 165 169 172 172 169 162 155 152 152 154 156 155 156 157
260 261 262 263 262 262 261 262 260 256 249 245 241 235 227 221 217 214 207 203 197 184 161 152 144 134 117 60 21 10 6 185 184 183 181 180 180 180 179 175 169 165 165 170 177 184 188 190 190 188 183 174 166 164 173 180 181 182 184 182 170 152 138 163 174 174 171 168 165 163 164 164 167 171 170 167 162 154 148 148 150 150 148 146 144 146
256 256 256 256 255 255 257 258 257 252 245 243 239 233 223 217 214 212 208 204 200 194 187 181 175 171 168 162 119 12 358 347 305 211 189 183 182 181 180 175 170 166 165 169 175 183 188 190 190 188 179 171 168 167 167 171 178 185 190 180 167 156 159 178 181 179 178 172 168 165 165 165 164 161 157 152 148 147 150 154 157 157 155 151 146 140
251 250 249 249 249 250 252 252 250 246 241 242 240 236 227 218 213 211 210 207 201 196 191 187 183 182 185 179 170 148 6 352 345 330 239 195 188 184 180 174 170 169 169 170 172 175 179 187 188 181 167 165 167 167 167 168 174 181 186 179 175 173 176 169 166 167 175 173 169 165 163 156 149 142 135 131 133 140 149 153 154 154 154 149 144 140
249 250 251 254 258 262 264 262 259 253 247 243 240 235 226 216 212 211 210 206 200 194 188 180 177 184 197 187 175 157 129 34 6 355 342 211 192 185 179 173 171 171 174 175 174 172 172 177 176 168 154 159 165 169 168 168 171 175 180 178 177 175 167 149 155 163 171 170 166 162 157 149 143 138 135 137 141 147 151 152 151 151 151 147 144 142
259 265 270 274 276 277 276 272 266 258 248 242 237 230 219 210 208 209 209 205 199 194 189 183 184 191 199 188 174 161 156 149 106 20 358 332 199 182 174 170 170 172 175 177 176 173 171 169 162 156 150 157 165 171 170 166 167 170 173 171 166 154 133 141 157 168 171 168 163 158 153 148 146 147 153 153 154 154 151 149 151 153 156 154 151 149
275 277 278 278 277 275 272 268 262 255 245 238 231 222 209 201 200 205 209 206 200 194 188 188 194 199 201 189 177 170 170 170 166 154 106 85 98 113 128 137 140 142 145 149 150 153 158 157 156 156 157 160 165 169 168 164 165 167 168 166 161 156 151 159 167 171 169 166 161 156 152 151 153 157 159 155 151 148 145 137 136 142 151 157 155 153
269 270 271 272 273 272 270 266 260 253 246 237 229 217 205 196 195 199 206 205 201 194 187 189 195 201 201 193 183 176 174 172 169 164 156 145 131 120 113 107 99 91 84 83 84 88 94 116 139 154 163 165 166 165 164 164 166 167 165 163 162 162 163 164 166 166 165 164 161 159 158 160 162 162 158 154 154 156 156 149 135 119 126 154 155 153
261 262 265 268 269 269 267 264 259 254 248 241 233 221 206 199 198 199 201 202 200 196 190 190 192 196 198 193 184 176 172 170 166 162 160 156 148 137 126 119 110 100 87 78 72 68 65 66 68 81 133 164 165 161 159 161 162 162 160 162 164 164 163 161 160 161 161 161 161 163 167 168 165 159 153 156 161 166 166 165 163 159 131 149 150 149
260 260 261 263 265 265 264 262 257 252 247 242 235 224 209 202 201 202 202 201 202 200 197 192 191 193 195 189 179 172 170 167 164 161 162 161 157 151 144 137 130 123 114 99 85 77 74 62 43 26 11 34 153 156 155 156 155 155 157 163 164 163 158 157 158 160 159 158 160 163 168 167 160 153 152 159 163 166 167 170 174 177 176 160 143 140
261 259 258 257 257 257 258 256 254 250 246 241 234 223 208 202 201 203 203 204 206 206 203 197 194 194 194 185 176 171 170 167 165 165 165 164 162 160 156 152 147 143 137 131 125 121 118 114 95 22 341 330 166 156 154 154 153 154 160 164 163 159 154 153 155 156 156 156 158 161 164 162 160 159 162 163 163 165 169 175 180 182 177 166 157 151